Meteo pe oră la Abertridwr

Astăzi, 29 Iulie, Joi

Timp Temperatura Precipitaţii Vânt Presiune Umiditate
00:00 +11°C° 0 mm 6 m/s 745 mmHg 80%
01:00 +10°C° 0 mm 5 m/s 745 mmHg 83%
02:00 +9°C° 0 mm 5 m/s 745 mmHg 86%
03:00 +10°C° 0 mm 4 m/s 745 mmHg 89%
04:00 +10°C° 0 mm 4 m/s 745 mmHg 88%
05:00 +11°C° 0 mm 4 m/s 745 mmHg 88%
06:00 +11°C° 0 mm 4 m/s 746 mmHg 87%
07:00 +13°C° 0 mm 5 m/s 746 mmHg 80%
08:00 +14°C° 0 mm 6 m/s 746 mmHg 74%
09:00 +16°C° 0 mm 7 m/s 746 mmHg 67%
10:00 +16°C° 0 mm 7 m/s 746 mmHg 65%
11:00 +17°C° 0 mm 6 m/s 746 mmHg 63%
12:00 +17°C° 0 mm 6 m/s 746 mmHg 61%
13:00 +17°C° 0 mm 6 m/s 746 mmHg 60%
14:00 +17°C° 0 mm 5 m/s 746 mmHg 60%
15:00 +17°C° 0 mm 5 m/s 746 mmHg 60%
16:00 +18°C° 0 mm 4 m/s 746 mmHg 63%
17:00 +17°C° 0 mm 3 m/s 745 mmHg 67%
18:00 +17°C° 0 mm 2 m/s 745 mmHg 70%
19:00 +16°C° 0.1 mm 2 m/s 745 mmHg 77%
20:00 +14°C° 0.1 mm 3 m/s 744 mmHg 84%
21:00 +13°C° 0.1 mm 3 m/s 744 mmHg 91%
22:00 +13°C° 0.7 mm 3 m/s 743 mmHg 93%
23:00 +13°C° 0.7 mm 4 m/s 743 mmHg 95%

Mâine, 30 Iulie, Vineri

Timp Temperatura Precipitaţii Vânt Presiune Umiditate
00:00 +13°C° 0.7 mm 4 m/s 742 mmHg 97%
01:00 +13°C° 0.9 mm 5 m/s 741 mmHg 97%
02:00 +13°C° 0.9 mm 5 m/s 741 mmHg 96%
03:00 +13°C° 0.9 mm 5 m/s 740 mmHg 95%
04:00 +13°C° 0.1 mm 6 m/s 739 mmHg 94%
05:00 +11°C° 0.1 mm 7 m/s 738 mmHg 93%
06:00 +11°C° 0.1 mm 7 m/s 738 mmHg 93%
07:00 +11°C° 1 mm 7 m/s 737 mmHg 93%
08:00 +11°C° 1 mm 7 m/s 737 mmHg 94%
09:00 +11°C° 1 mm 7 m/s 736 mmHg 95%
10:00 +12°C° 1.2 mm 7 m/s 737 mmHg 91%
11:00 +14°C° 1.2 mm 7 m/s 738 mmHg 87%
12:00 +14°C° 1.2 mm 7 m/s 739 mmHg 84%
13:00 +15°C° 0.3 mm 7 m/s 739 mmHg 82%
14:00 +16°C° 0.3 mm 7 m/s 740 mmHg 80%
15:00 +16°C° 0.3 mm 8 m/s 741 mmHg 78%
16:00 +16°C° 0.1 mm 7 m/s 741 mmHg 79%
17:00 +16°C° 0.1 mm 7 m/s 742 mmHg 81%
18:00 +15°C° 0.1 mm 7 m/s 743 mmHg 82%
19:00 +14°C° 0 mm 6 m/s 743 mmHg 84%
20:00 +14°C° 0 mm 5 m/s 744 mmHg 87%
21:00 +13°C° 0 mm 5 m/s 744 mmHg 89%
22:00 +13°C° 0 mm 4 m/s 744 mmHg 90%
23:00 +12°C° 0 mm 4 m/s 744 mmHg 91%

Poimâine, 31 Iulie, Sâmbătă

Timp Temperatura Precipitaţii Vânt Presiune Umiditate
00:00 +12°C° 0 mm 3 m/s 744 mmHg 92%
01:00 +12°C° 0 mm 3 m/s 744 mmHg 93%
02:00 +12°C° 0 mm 3 m/s 744 mmHg 93%
03:00 +12°C° 0 mm 3 m/s 745 mmHg 94%
04:00 +12°C° 0 mm 3 m/s 745 mmHg 93%
05:00 +13°C° 0 mm 3 m/s 745 mmHg 93%
06:00 +13°C° 0 mm 3 m/s 745 mmHg 92%
07:00 +14°C° 0 mm 3 m/s 745 mmHg 87%
08:00 +16°C° 0 mm 3 m/s 745 mmHg 83%
09:00 +17°C° 0 mm 3 m/s 746 mmHg 78%
10:00 +17°C° 0.1 mm 4 m/s 746 mmHg 76%
11:00 +18°C° 0.1 mm 4 m/s 746 mmHg 73%
12:00 +19°C° 0.1 mm 4 m/s 746 mmHg 70%
13:00 +19°C° 0.1 mm 5 m/s 746 mmHg 71%
14:00 +19°C° 0.1 mm 5 m/s 746 mmHg 72%
15:00 +19°C° 0.1 mm 5 m/s 746 mmHg 72%
16:00 +19°C° 0.1 mm 5 m/s 746 mmHg 75%
17:00 +17°C° 0.1 mm 5 m/s 746 mmHg 77%
18:00 +18°C° 0.1 mm 4 m/s 745 mmHg 80%
19:00 +15°C° 0 mm 4 m/s 746 mmHg 84%
20:00 +14°C° 0 mm 3 m/s 746 mmHg 89%
21:00 +13°C° 0 mm 3 m/s 746 mmHg 93%
22:00 +13°C° 0 mm 2 m/s 746 mmHg 93%
23:00 +13°C° 0 mm 2 m/s 746 mmHg 94%

1 August, Duminică

Timp Temperatura Precipitaţii Vânt Presiune Umiditate
00:00 +13°C° 0 mm 2 m/s 746 mmHg 94%
01:00 +13°C° 0 mm 2 m/s 746 mmHg 93%
02:00 +13°C° 0 mm 1 m/s 746 mmHg 92%
03:00 +13°C° 0 mm 1 m/s 746 mmHg 91%
04:00 +14°C° 0 mm 1 m/s 746 mmHg 91%
05:00 +14°C° 0 mm 1 m/s 746 mmHg 90%
06:00 +15°C° 0 mm 1 m/s 746 mmHg 89%
07:00 +15°C° 0.2 mm 1 m/s 746 mmHg 88%
08:00 +16°C° 0.2 mm 1 m/s 746 mmHg 86%
09:00 +18°C° 0.2 mm 1 m/s 746 mmHg 85%
10:00 +19°C° 0.4 mm 1 m/s 746 mmHg 81%
11:00 +19°C° 0.4 mm 2 m/s 746 mmHg 77%
12:00 +19°C° 0.4 mm 3 m/s 746 mmHg 73%
13:00 +20°C° 0.2 mm 3 m/s 746 mmHg 69%
14:00 +20°C° 0.2 mm 4 m/s 746 mmHg 65%
15:00 +20°C° 0.2 mm 4 m/s 746 mmHg 61%
16:00 +19°C° 0 mm 4 m/s 747 mmHg 64%
17:00 +17°C° 0 mm 5 m/s 747 mmHg 67%
18:00 +16°C° 0 mm 5 m/s 747 mmHg 70%
19:00 +14°C° 0 mm 4 m/s 747 mmHg 77%
20:00 +13°C° 0 mm 4 m/s 747 mmHg 84%
21:00 +11°C° 0 mm 3 m/s 748 mmHg 91%
22:00 +11°C° 0 mm 3 m/s 748 mmHg 90%
23:00 +11°C° 0 mm 3 m/s 748 mmHg 88%

2 August, Luni

Timp Temperatura Precipitaţii Vânt Presiune Umiditate
00:00 +12°C° 0 mm 3 m/s 748 mmHg 87%
01:00 +11°C° 0 mm 3 m/s 748 mmHg 88%
02:00 +11°C° 0 mm 3 m/s 748 mmHg 89%
03:00 +12°C° 0 mm 2 m/s 748 mmHg 90%
04:00 +12°C° 0 mm 2 m/s 749 mmHg 90%
05:00 +13°C° 0 mm 2 m/s 749 mmHg 89%
06:00 +13°C° 0 mm 2 m/s 749 mmHg 88%
07:00 +14°C° 0 mm 2 m/s 749 mmHg 85%
08:00 +14°C° 0 mm 2 m/s 749 mmHg 82%
09:00 +14°C° 0 mm 3 m/s 750 mmHg 79%
10:00 +15°C° 0 mm 2 m/s 750 mmHg 74%
11:00 +16°C° 0 mm 2 m/s 750 mmHg 70%
12:00 +17°C° 0 mm 2 m/s 750 mmHg 65%
13:00 +18°C° 0.2 mm 2 m/s 750 mmHg 65%
14:00 +18°C° 0.2 mm 2 m/s 750 mmHg 64%
15:00 +19°C° 0.2 mm 1 m/s 750 mmHg 64%
16:00 +19°C° 0.2 mm 1 m/s 750 mmHg 68%
17:00 +19°C° 0.2 mm 1 m/s 750 mmHg 72%
18:00 +18°C° 0.2 mm 1 m/s 750 mmHg 76%
19:00 +16°C° 0.1 mm 1 m/s 750 mmHg 78%
20:00 +15°C° 0.1 mm 1 m/s 750 mmHg 79%
21:00 +14°C° 0.1 mm 1 m/s 750 mmHg 81%
22:00 +14°C° 0 mm 1 m/s 751 mmHg 81%
23:00 +14°C° 0 mm 1 m/s 751 mmHg 82%

3 August, Marţi

Timp Temperatura Precipitaţii Vânt Presiune Umiditate
00:00 +12°C° 0 mm 0 m/s 751 mmHg 83%
01:00 +12°C° 0 mm 0 m/s 751 mmHg 83%
02:00 +12°C° 0 mm 0 m/s 751 mmHg 83%
03:00 +12°C° 0 mm 0 m/s 751 mmHg 84%
04:00 +12°C° 0 mm 0 m/s 751 mmHg 84%
05:00 +13°C° 0 mm 0 m/s 751 mmHg 85%
06:00 +13°C° 0 mm 0 m/s 751 mmHg 85%
07:00 +14°C° 0 mm 0 m/s 751 mmHg 82%
08:00 +16°C° 0 mm 1 m/s 751 mmHg 79%
09:00 +18°C° 0 mm 1 m/s 751 mmHg 76%
10:00 +18°C° 0.2 mm 1 m/s 751 mmHg 73%
11:00 +18°C° 0.2 mm 2 m/s 751 mmHg 69%
12:00 +19°C° 0.2 mm 2 m/s 751 mmHg 65%
13:00 +19°C° 0.1 mm 2 m/s 751 mmHg 64%
14:00 +19°C° 0.1 mm 3 m/s 751 mmHg 63%
15:00 +19°C° 0.1 mm 3 m/s 751 mmHg 62%
16:00 +19°C° 0 mm 3 m/s 750 mmHg 64%
17:00 +19°C° 0 mm 3 m/s 750 mmHg 67%
18:00 +18°C° 0 mm 3 m/s 750 mmHg 70%
19:00 +16°C° 0 mm 3 m/s 751 mmHg 76%
20:00 +15°C° 0 mm 2 m/s 751 mmHg 82%
21:00 +13°C° 0 mm 2 m/s 751 mmHg 88%
22:00 +13°C° 0 mm 2 m/s 751 mmHg 88%
23:00 +12°C° 0 mm 2 m/s 751 mmHg 89%
Arată mai mult

Formular de consimțământ

Meteoprog și furnizorii noștri de servicii pot stoca și accesa date personale, precum cookies, identificatori de dispozitiv sau alte tehnologii similare pe dispozitivul dumneavoastră și procesa astfel de date pentru a personaliza conținutul și reclamele, dar și pentru a oferi caracteristici de social media și pentru a analiza traficul.

  • Stocarea și/sau accesarea informațiilor pe dispozitivul dumneavoastră

    Cookies, identificatori de dispozitiv sau alte informații pot fi stocate sau accesate pe dispozitiv în scopurile indicate mai sus.

  • Reclame și conținut personalizat, evaluarea reclamelor și a conținutului, informații despre audiențe și dezvoltarea produselor

    Reclamele și conținutul pot fi personalizate pe baza unui profil. Pot fi adăugate date suplimentare pentru a personaliza mai bine reclamele și conținutul. Performanța reclamelor și conținutului poate fi măsurată. Pot fi obținute informații despre utilizatorii care au văzut reclamele și conținutul. Aceste date pot fi utilizate pentru a dezvolta sau îmbunătăți experiența utilizatorilor, sistemele și software-ul.

Dând clic pe ‘Sunt de acord’, permiteți utilizarea cookie-urilor menționate, a identificatorilor de dispozitiv, balizelor web sau altor tehnologii similare. Setările pot fi modificate din browser-ul dispozitivului dumneavoastră.

În anumite scopuri, interesele legitime pot prima asupra consimțământului. Puteți citi mai multe informații în acest sens în Politica privind Confidențialitatea Datelor și Cookie.